Regional Weather Roundup
Issued by NWS Northern Indiana

Home | Current Version | Previous Version | Text Only | Print | Product List | Glossary Off
Versions: 1 2 3 4 5 6 7 8 9 10 11 12 13 14 15 16 17 18 19 20 21 22 23 24 25 26 27 28 29 30 31 32 33 34 35 36 37 38 39 40 41 42 43 44 45 46 47 48 49 50

000
ASUS43 KIWX 281310
RWRIWX

KIWX WEATHER ROUNDUP
NATIONAL WEATHER SERVICE NORTHERN INDIANA
900 AM EDT THU MAY 28 2015

NOTE: "FAIR" INDICATES FEW OR NO CLOUDS BELOW 12,000 FEET WITH NO
SIGNIFICANT WEATHER AND/OR OBSTRUCTIONS TO VISIBILITY.

* THESE STATIONS ARE NOT UNDER NWS QUALITY CONTROL. THEY ALSO MAY NOT
  REPORT WEATHER SUCH AS PRECIPITATION OR FOG.

INZ001>027-281400-
NORTHERN INDIANA

CITY           SKY/WX    TMP DP  RH WIND       PRES   REMARKS
GARY*          SUNNY     66  57  72 SE6       30.21F
VALPARAISO     SUNNY     63  56  78 S5        30.23S
MICHIGAN CITY* SUNNY     63  59  88 S6        30.23R
LAPORTE*       SUNNY     65  57  77 S7        30.24R
KNOX*          SUNNY     61  57  88 CALM      30.22F
SOUTH BEND     SUNNY     64  58  80 S6        30.23R
ELKHART*       SUNNY     63  59  88 E3        30.22S
GOSHEN         SUNNY     64  59  83 S6        30.23R
MONTICELLO*    SUNNY     65  58  75 E7        30.20S
LOGANSPORT*    SUNNY     63  55  77 E9        30.23R
ROCHESTER*     SUNNY     64  61  88 E3        30.24R
WARSAW*        SUNNY     63  59  88 CALM      30.24R
ANGOLA*        SUNNY     64  55  72 E6        30.23R
FORT WAYNE     MOSUNNY   64  58  80 E5        30.24R
HUNTINGTON*    SUNNY     63  58  84 E3        30.23R
PERU/GRISSOM   SUNNY     64  58  82 E9        30.22R
MARION*        SUNNY     63  56  77 NE8       30.23S

$$
INZ028>050-281400-
CENTRAL INDIANA

CITY           SKY/WX    TMP DP  RH WIND       PRES   REMARKS
LAFAYETTE      SUNNY     64  58  80 E6        30.21R
KOKOMO*        SUNNY     63  57  82 E9        30.23S
MUNCIE*        SUNNY     66  59  78 E9        30.23R
INDIANAPOLIS   MOSUNNY   67  56  67 NE6       30.19S

$$
MIZ043>046-050>051-056>058-064>065-071>073-077>080-281400-
SOUTHWEST LOWER MICHIGAN

CITY           SKY/WX    TMP DP  RH WIND       PRES   REMARKS
BATTLE CREEK   SUNNY     65  57  75 E3        30.23F
BENTON HARBOR  SUNNY     64  57  78 VRB3      30.21R
COLDWATER*     SUNNY     63  60  90 E3        30.23S
HILLSDALE*     SUNNY     66  60  79 E5        30.24S
HOLLAND          N/A     63  57  81 S5        30.22R
GRAND RAPIDS   MOSUNNY   63  57  81 SE3       30.22S
KALAMAZOO      SUNNY     64  58  80 S3        30.23S
STURGIS*       SUNNY     64  59  82 E7        30.22S
THREE RIVERS*  FAIR      62  60  91 NE3       30.23S

$$
OHZ001>008-015>018-024>025-281400-
NORTHWEST OHIO

CITY           SKY/WX    TMP DP  RH WIND       PRES   REMARKS
WAUSEON*       FAIR      64  64 100 E6        30.24R
DEFIANCE       SUNNY     66  59  78 E7        30.23S
FINDLAY        SUNNY     67  59  75 E10       30.23R
TOLEDO EXPRESS SUNNY     65  58  78 E3        30.23R
TOLEDO METCALF SUNNY     67  58  72 E6        30.24R
LIMA           SUNNY     67  60  78 E10       30.23S

$$
AND FOR LAKE MICHIGAN COASTAL AND OPEN LAKE BUOY OBSERVATIONS

STATION/POSITION TEMP    WIND        PRES    VSBY  WAVE
                 AIR SEA DIR/SP/G                  HT/PER
                 (F)     (DEG/KT/KT) (MB)    (MI)  (FT/S)
CALUMET HARBOR    65     200/  3/  4   N/A
MICHIGAN CITY     64     140/  9/ 12   N/A
BURNS HARBOR      63     180/  9/ 12 1023.7R
SAINT JOSEPH      65     140/  2/  3 1023.7R
SOUTH LAKE BUOY   44 38  180/  8/  8 1023.0R         0
4 MI NW BRIDGMAN  59 56  220/  4/  4   N/A           1
MICHIGAN CITY     59 53  200/  4/  6   N/A           0
SAINT JOSEPH CG                      1022.2      6   1

$$
&&


USA.gov is the U.S. government's official web portal to all federal, state and local government web resources and services.